FW4758 Weather Reports


time (UTC)temp
C
wind
direction
speed
KPH
gust
KPH
rain 1hr
cm
rain 24hr
cm
rain mn
cm
humidity
%
barometer
mb
20260506160022 11 355 9.7 22.5 0.00 0.10 0.10 86 1013.0
20260506154521 11 360 11.3 20.9 0.03 0.10 0.10 86 1012.7
20260506153024 11 19 6.4 20.9 0.10 0.10 0.10 85 1012.7
20260506151520 10 5 11.3 24.1 0.10 0.10 0.10 85 1012.6
20260506150019 10 333 9.7 14.5 0.10 0.10 0.10 86 1014.1
20260506144517 10 355 9.7 14.5 0.08 0.08 0.08 85 1014.0
20260506143023 11 327 9.7 19.3 0.00 0.00 0.00 85 1014.2
20260506141513 11 347 9.7 20.9 0.00 0.00 0.00 85 1012.8
20260506140017 11 350 14.5 24.1 0.00 0.00 0.00 84 1012.7
20260506134508 11 331 14.5 24.1 0.00 0.00 0.00 84 1012.8
20260506133005 11 57 12.9 22.5 0.00 0.00 0.00 83 1012.3
20260506131505 11 336 12.9 27.4 0.00 0.00 0.00 82 1011.9
20260506130121 11 347 12.9 22.5 0.00 0.00 0.00 81 1011.7
20260506124556 11 350 11.3 20.9 0.00 0.00 0.00 80 1011.3
20260506123055 12 336 12.9 24.1 0.00 0.00 0.00 80 1011.3
20260506121553 12 15 11.3 24.1 0.00 0.00 0.00 81 1011.0
20260506120050 12 28 11.3 19.3 0.00 0.00 0.00 80 1011.0
20260506114549 12 334 14.5 24.1 0.00 0.00 0.00 80 1010.8
20260506113044 12 321 12.9 22.5 0.00 0.00 0.00 80 1010.6
20260506111542 12 331 9.7 19.3 0.00 0.00 0.00 80 1010.4
20260506110044 12 327 12.9 22.5 0.00 0.00 0.00 80 1009.8
20260506104604 13 336 9.7 20.9 0.00 0.00 0.00 81 1009.8
20260506103040 13 323 12.9 19.3 0.00 0.00 0.00 80 1009.6
20260506101533 13 350 8.0 20.9 0.00 0.00 0.00 81 1009.2
20260506100039 13 347 9.7 16.1 0.00 0.00 0.00 80 1008.9
20260506094533 13 344 9.7 19.3 0.00 0.00 0.00 81 1008.8
20260506093025 13 341 9.7 14.5 0.00 0.00 0.00 80 1008.6
20260506091523 14 348 6.4 14.5 0.00 0.00 0.00 80 1008.6
20260506090020 14 331 11.3 17.7 0.00 0.00 0.00 81 1008.6
20260506084518 14 302 6.4 16.1 0.00 0.00 0.00 80 1008.5
20260506083033 15 342 6.4 16.1 0.00 0.00 0.00 80 1008.2
20260506081513 15 339 9.7 19.3 0.00 0.00 0.00 80 1008.2
20260506073009 15 38 8.0 16.1 0.00 0.00 0.00 81 1007.8
20260506071508 15 5 6.4 14.5 0.00 0.00 0.00 81 1008.0
20260506061502 16 5 6.4 14.5 0.00 0.00 0.00 81 1007.7
20260506044556 17 5 8.0 16.1 0.00 0.00 0.00 78 1007.5
20260506043052 18 18 9.7 17.7 0.00 0.00 0.00 78 1007.5
20260506041545 18 339 12.9 20.9 0.00 0.00 0.00 77 1007.6
20260506040047 18 332 8.0 20.9 0.00 0.00 0.00 76 1007.5
20260506034536 18 349 12.9 22.5 0.00 0.00 0.00 75 1007.2
20260506033032 19 340 11.3 19.3 0.00 0.00 0.00 74 1006.9
20260506031530 19 24 8.0 17.7 0.00 0.00 0.00 74 1006.4
20260506030028 20 350 9.7 20.9 0.00 0.00 0.00 73 1006.0
20260506024535 20 348 9.7 19.3 0.00 0.00 0.00 73 1005.9
20260506023024 21 343 11.3 22.5 0.00 0.00 0.00 72 1005.6
20260506021540 21 15 11.3 19.3 0.00 0.00 0.00 72 1005.4
20260506020021 22 332 9.7 19.3 0.00 0.00 0.00 71 1005.0
20260506014523 22 313 8.0 20.9 0.00 0.00 0.00 70 1004.6
20260506013017 22 340 6.4 14.5 0.00 0.00 0.00 70 1004.1
20260506011524 23 348 6.4 17.7 0.00 0.00 0.00 68 1003.9
20260506010016 23 322 8.0 19.3 0.00 0.00 0.00 66 1003.7
20260506004515 23 310 9.7 16.1 0.00 0.00 0.00 65 1003.5
20260506003015 23 360 4.8 16.1 0.00 0.00 0.00 64 1003.2
20260506001515 24 5 11.3 22.5 0.00 0.00 0.00 64 1003.3
20260506000014 25 355 9.7 24.1 0.00 0.00 0.00 63 1003.3
20260505234515 25 344 12.9 22.5 0.00 0.00 0.00 62 1003.0
20260505233012 26 355 12.9 24.1 0.00 0.00 0.00 61 1002.6
20260505231522 27 342 16.1 25.7 0.00 0.00 0.00 55 1002.4
20260505230012 28 333 12.9 24.1 0.00 0.00 0.00 50 1002.2
20260505224519 30 324 4.8 11.3 0.00 0.00 0.00 52 1002.0
20260505223014 30 299 6.4 11.3 0.00 0.00 0.00 50 1001.9
20260505221511 30 336 6.4 11.3 0.00 0.00 0.00 51 1001.9
20260505220010 31 291 4.8 9.7 0.00 0.00 0.00 51 1001.7
20260505214511 31 242 6.4 11.3 0.00 0.00 0.00 48 1001.9
20260505213007 31 276 4.8 12.9 0.00 0.00 0.00 50 1001.9
20260505211518 31 233 4.8 11.3 0.00 0.00 0.00 51 1002.0
20260505210006 31 236 8.0 20.9 0.00 0.00 0.00 50 1002.4
20260505204503 31 173 8.0 17.7 0.00 0.00 0.00 52 1002.6
20260505203001 30 196 6.4 17.7 0.00 0.00 0.00 55 1002.4
20260505201600 30 240 14.5 25.7 0.00 0.00 0.00 53 1002.9
20260505200058 30 146 9.7 20.9 0.00 0.00 0.00 59 1002.8
20260505194554 30 254 11.3 22.5 0.00 0.00 0.00 62 1003.0
20260505193052 29 200 14.5 22.5 0.00 0.00 0.00 63 1003.0
20260505191554 28 223 12.9 25.7 0.00 0.00 0.00 64 1003.0
20260505190047 28 205 14.5 25.7 0.00 0.00 0.00 65 1003.1
20260505184550 28 215 16.1 27.4 0.00 0.00 0.00 66 1003.4
20260505183047 27 217 16.1 25.7 0.00 0.00 0.00 69 1003.5
20260505181540 27 223 14.5 27.4 0.00 0.00 0.00 71 1003.6
20260505180039 27 216 19.3 30.6 0.00 0.00 0.00 71 1003.7
20260505174535 26 186 14.5 27.4 0.00 0.00 0.00 73 1003.7
20260505173031 26 192 12.9 27.4 0.00 0.00 0.00 76 1003.7
20260505171531 26 203 16.1 24.1 0.00 0.00 0.00 75 1003.9
20260505170035 25 184 16.1 27.4 0.00 0.00 0.00 77 1003.9
20260505164528 25 227 11.3 25.7 0.00 0.00 0.00 78 1003.8
20260505163027 25 360 17.7 35.4 0.00 0.00 0.00 78 1003.5
20260505161522 25 213 16.1 32.2 0.00 0.00 0.00 79 1003.5